Time,TemperatureF,DewpointF,PressureIn,WindDirection,WindDirectionDegrees,WindSpeedMPH,WindSpeedGustMPH,Humidity,HourlyPrecipIn,Conditions,Clouds,dailyrainin,SoftwareType,DateUTC
2013-01-01 06:23:00,48.0,45.0,30.06,North,0,0.0,0.0,88,0.00,,,0.00,,2013-01-01 11:23:00,
2013-01-01 06:33:00,49.0,45.0,30.06,WSW,258,0.0,1.0,87,0.00,,,0.00,,2013-01-01 11:33:00,
2013-01-01 06:43:00,49.0,45.0,30.06,WSW,258,0.0,1.0,87,0.00,,,0.00,,2013-01-01 11:43:00,
2013-01-01 06:50:00,50.0,46.0,30.06,North,0,0.0,0.0,86,0.00,,,0.00,,2013-01-01 11:50:00,
2013-01-01 06:53:00,50.0,46.0,30.06,North,0,0.0,0.0,86,0.00,,,0.00,,2013-01-01 11:53:00,
2013-01-01 07:02:00,50.0,46.0,30.06,North,0,0.0,0.0,86,0.00,,,0.00,,2013-01-01 12:02:00,
2013-01-01 07:12:00,50.0,46.0,30.06,North,0,0.0,0.0,86,0.00,,,0.00,,2013-01-01 12:12:00,
2013-01-01 07:22:00,50.0,46.0,30.06,North,0,0.0,0.0,86,0.00,,,0.00,,2013-01-01 12:22:00,
2013-01-01 07:33:00,50.0,46.0,30.06,North,0,0.0,0.0,86,0.00,,,0.00,,2013-01-01 12:33:00,
2013-01-01 07:43:00,50.0,46.0,30.06,North,0,0.0,0.0,86,0.00,,,0.00,,2013-01-01 12:43:00,
2013-01-01 15:53:00,55.0,51.0,29.96,SW,233,0.0,5.0,87,0.00,,,0.00,,2013-01-01 20:53:00,
2013-01-01 16:03:00,55.0,51.0,29.96,WSW,241,1.0,4.0,87,0.00,,,0.00,,2013-01-01 21:03:00,
2013-01-01 16:13:00,55.0,52.0,29.96,WSW,246,0.0,2.0,89,0.00,,,0.00,,2013-01-01 21:13:00,
2013-01-01 16:22:00,55.0,52.0,29.96,WSW,246,0.0,2.0,89,0.00,,,0.00,,2013-01-01 21:22:00,
2013-01-01 16:33:00,55.0,52.0,29.95,SW,227,1.0,4.0,88,0.00,,,0.00,,2013-01-01 21:33:00,
2013-01-01 16:42:00,55.0,52.0,29.95,SW,227,1.0,4.0,88,0.00,,,0.00,,2013-01-01 21:42:00,
2013-01-01 16:53:00,54.0,51.0,29.96,SW,232,1.0,3.0,88,0.00,,,0.00,,2013-01-01 21:53:00,
2013-01-01 17:03:00,54.0,51.0,29.96,West,263,0.0,2.0,89,0.00,,,0.00,,2013-01-01 22:03:00,
2013-01-01 17:12:00,54.0,51.0,29.96,West,263,0.0,2.0,89,0.00,,,0.00,,2013-01-01 22:12:00,
2013-01-01 17:20:00,54.0,51.0,29.96,North,0,0.0,0.0,89,0.00,,,0.00,,2013-01-01 22:20:00,
2013-01-01 17:22:00,54.0,51.0,29.96,WSW,252,0.0,1.0,89,0.00,,,0.00,,2013-01-01 22:22:00,
2013-01-01 17:33:00,54.0,51.0,29.96,North,0,0.0,0.0,89,0.00,,,0.00,,2013-01-01 22:33:00,
2013-01-01 17:42:00,54.0,51.0,29.96,North,0,0.0,0.0,89,0.00,,,0.00,,2013-01-01 22:42:00,
2013-01-01 17:52:00,54.0,51.0,29.96,North,0,0.0,0.0,89,0.00,,,0.00,,2013-01-01 22:52:00,
2013-01-01 18:03:00,54.0,51.0,29.96,North,0,0.0,0.0,89,0.00,,,0.00,,2013-01-01 23:03:00,
2013-01-01 18:12:00,54.0,51.0,29.96,North,0,0.0,0.0,89,0.00,,,0.00,,2013-01-01 23:12:00,
2013-01-01 22:22:00,55.0,52.0,29.97,WSW,251,0.0,2.0,91,0.00,,,0.00,,2013-01-02 03:22:00,
2013-01-01 22:32:00,55.0,52.0,29.96,WSW,255,0.0,1.0,91,0.00,,,0.00,,2013-01-02 03:32:00,
2013-01-01 22:42:00,55.0,52.0,29.96,WSW,255,0.0,1.0,91,0.00,,,0.00,,2013-01-02 03:42:00,
2013-01-01 22:50:00,55.0,53.0,29.94,WNW,284,1.0,2.0,92,0.00,,,0.00,,2013-01-02 03:50:00,
2013-01-01 22:53:00,55.0,52.0,29.95,West,263,0.0,1.0,91,0.00,,,0.00,,2013-01-02 03:53:00,
2013-01-01 23:02:00,55.0,53.0,29.94,WNW,284,1.0,2.0,92,0.00,,,0.00,,2013-01-02 04:02:00,
2013-01-01 23:12:00,55.0,53.0,29.94,WNW,284,1.0,2.0,92,0.00,,,0.00,,2013-01-02 04:12:00,
2013-01-01 23:22:00,55.0,53.0,29.94,WNW,284,1.0,2.0,92,0.00,,,0.00,,2013-01-02 04:22:00,
2013-01-01 23:32:00,55.0,53.0,29.94,WNW,284,1.0,2.0,92,0.00,,,0.00,,2013-01-02 04:32:00,
2013-01-01 23:42:00,55.0,53.0,29.94,WNW,284,1.0,2.0,92,0.00,,,0.00,,2013-01-02 04:42:00,